Location: Casco Millpond
(44.5581°N, 87.6111°W)
Time: 22:03:54
(UTC+00:00)

Landsat 7 - Pass Details

Date: 16 January 2026
Orbit: 680 x 682 km, 97.9° (Epoch: 13 February)

Event Time Altitude Azimuth Distance (km) Brightness Sun altitude
Rises 12:08:51 0° 14° (NNE) 3,052 7.1 -13.0°
Reaches altitude 10° 12:11:06 10° 17° (NNE) 2,132 6.3 -12.6°
Maximum altitude 12:15:46 72° 102° (ESE) 719 4.1 -11.8°
Drops below altitude 10° 12:20:23 10° 187° (S) 2,114 6.4 -11.0°
Sets 12:22:37 0° 189° (S) 3,024 7.2 -10.7°
